Location: Le Rocchette
(44.3500°N, 7.8333°E)
Time: 02:34:25
(UTC+00:00)

Cosmos 1605 Rocket - Pass Details

Date: 17 November 2019
Orbit: 944 x 1006 km, 82.9° (Epoch: 05 December)

Event Time Altitude Azimuth Distance (km) Brightness Sun altitude
Exits shadow 03:37:04 65° 169° (S) 1,050 4.1 -30.2°
Maximum altitude 03:38:00 82° 97° (E) 974 3.9 -30.0°
Drops below altitude 10° 03:44:10 10° 10° (N) 2,687 6.4 -28.9°
Sets 03:46:39 0° 9° (N) 3,631 7.1 -28.5°
